Location: Kazanice
(53.5528°N, 19.7258°E)
Time: 14:58:30
(UTC+01:00)

ISS - Pass Details

Date: 28 January 2019
Orbit: 403 x 411 km, 51.6° (Epoch: 16 February)

Event Time Altitude Azimuth Distance (km) Brightness Sun altitude
Rises 19:08:35 0° 261° (W) 2,337 1.3 -25.5°
Reaches altitude 10° 19:10:40 10° 258° (WSW) 1,478 0.0 -25.8°
Enters shadow 19:12:13 25° 251° (WSW) 877 -1.6 -26.0°
